Wind_Speed
37 37 37 37 36 36 37 37 38 38 38 38 38 38 38 38 38 38 39 40 40 41 41 42 42 42 42 42 43 43 44 45 46 46 46 46 46 47 48 49 50 51 52 52
36 37 37 37 37 38 37 37 37 38 37 37 37 38 37 37 37 38 39 40 40 40 41 42 42 41 41 41 41 42 43 44 46 45 45 45 46 47 48 48 50 51 51 52
37 37 38 38 37 37 38 37 37 37 36 36 36 36 37 37 37 38 38 38 39 39 39 40 41 41 41 41 41 42 43 44 44 44 44 44 45 46 47 48 49 50 51 51
37 37 38 38 37 37 37 36 36 36 36 35 36 37 37 37 37 38 38 38 39 39 39 39 40 40 40 41 42 42 43 43 43 44 44 44 46 46 46 47 48 48 49 49
36 38 39 37 36 36 36 36 35 35 35 36 37 37 37 37 37 37 38 38 38 38 39 38 38 39 39 40 41 41 41 42 42 42 42 43 44 44 44 45 46 47 47 47
36 37 37 36 36 36 36 36 35 35 36 37 37 38 37 37 36 37 37 37 37 37 37 37 37 38 38 39 39 40 40 40 41 41 42 42 43 44 44 44 45 45 45 45
36 37 37 35 35 35 36 36 36 36 37 37 37 37 37 37 36 36 35 35 35 36 36 37 37 38 38 39 38 39 39 39 39 40 40 42 43 43 44 44 44 44 45 45
35 36 35 33 34 34 35 36 36 36 36 36 36 37 37 37 36 36 35 35 35 36 36 37 38 38 38 38 38 38 38 39 39 39 40 41 42 43 43 43 43 44 44 45
35 35 34 33 33 34 34 34 34 35 35 36 36 36 37 37 36 36 35 36 36 36 37 37 38 38 38 37 37 37 38 38 39 39 40 40 41 42 43 44 44 44 44 44
35 33 34 33 33 33 33 34 34 33 34 34 35 35 35 35 35 35 36 36 36 37 37 37 38 38 37 37 37 37 37 38 38 39 39 40 41 41 42 42 43 44 43 43
34 33 33 33 34 35 34 34 33 32 33 34 34 34 34 35 35 35 35 36 36 36 36 36 36 36 36 36 37 37 38 38 38 38 39 39 39 40 41 42 42 42 42 42
32 32 33 33 34 35 34 33 33 33 33 33 33 34 34 35 35 35 35 35 36 35 35 35 35 34 35 35 36 37 37 37 37 37 37 38 38 38 39 40 40 41 41 41
32 32 33 32 33 34 34 34 34 34 33 33 33 34 34 35 35 35 34 34 34 34 34 34 33 33 34 35 36 36 36 35 36 36 36 36 36 36 37 37 37 38 38 39
31 31 32 32 32 33 33 33 33 33 33 32 32 32 33 33 33 33 33 33 33 33 33 33 33 33 34 34 34 34 35 35 35 34 34 34 34 34 34 35 35 35 36 36
30 30 30 30 30 30 31 31 31 32 32 32 32 32 32 32 32 32 32 32 32 32 32 32 33 33 33 33 34 34 34 34 34 33 33 33 33 32 32 33 34 34 34 34
29 30 30 30 30 30 31 31 32 32 32 32 32 32 32 32 31 31 31 31 31 31 31 31 32 32 32 33 33 33 33 33 32 32 31 31 31 31 32 31 31 31 32 32
29 29 29 29 30 30 31 31 31 31 30 30 30 31 31 31 30 30 30 30 30 30 30 30 30 31 31 32 32 32 31 31 30 30 30 30 30 30 30 30 30 29 29 29
28 28 29 29 29 29 29 29 29 29 29 29 30 30 30 29 29 29 29 29 29 29 29 29 29 30 30 30 31 31 31 30 30 29 29 28 28 28 28 28 28 28 28 27
28 28 29 29 30 29 29 28 29 29 29 29 29 29 29 29 29 29 29 28 28 28 28 28 29 29 29 30 30 29 29 28 28 27 27 26 26 25 25 25 26 26 26 26
27 28 28 29 29 28 27 27 28 28 29 29 29 29 28 28 28 28 28 28 28 28 28 28 28 28 28 29 29 28 28 28 27 26 25 24 23 23 23 23 23 22 22 22
27 27 27 27 27 27 27 27 27 27 28 28 28 28 28 28 28 28 28 28 28 28 28 28 27 27 27 27 27 27 26 26 25 25 24 23 22 21 21 20 21 21 21 21
27 27 27 27 27 27 27 27 27 27 28 28 28 28 28 27 27 27 27 27 27 27 27 27 26 26 26 26 26 25 24 24 24 23 22 22 21 20 20 20 20 20 20 20
27 28 28 28 28 28 28 28 28 28 28 29 28 28 27 27 27 27 27 26 26 26 26 25 25 25 25 25 24 24 23 23 22 22 21 20 20 20 20 20 20 19 19 19
29 29 29 29 29 29 29 29 29 29 29 28 28 27 26 26 26 26 26 26 26 25 25 24 24 25 25 24 24 23 23 22 22 21 21 20 20 20 20 20 19 19 18 17
30 30 30 30 29 29 29 29 29 29 29 28 27 26 26 26 26 26 26 26 25 24 24 24 24 24 24 24 23 23 23 22 22 21 21 21 20 20 20 19 19 18 18 16
31 30 30 30 30 29 29 29 29 28 27 27 27 26 26 26 26 26 26 25 24 23 23 24 24 24 24 23 23 23 22 22 22 22 21 21 20 19 19 18 17 17 16 16
31 31 31 30 30 29 29 28 27 27 27 27 27 26 26 26 25 25 25 24 23 23 23 23 23 23 23 23 22 22 21 21 21 21 20 19 19 18 18 17 17 16 15 15
Wind_Direction
287 286 286 286 285 285 285 286 287 288 288 289 289 289 288 288 288 287 287 287 287 285 283 281 280 279 278 277 275 274 274 275 276 275 273 271 268 266 265 265 265 265 265 266
286 286 286 286 285 285 286 286 286 287 287 288 288 288 289 289 288 288 288 288 288 286 285 283 281 279 278 276 276 276 276 276 276 274 273 272 270 268 266 267 267 267 267 267
287 287 287 286 287 287 287 286 286 285 286 286 288 289 289 289 289 289 289 288 288 288 287 285 283 280 278 277 276 277 278 276 275 274 273 273 272 269 268 268 268 268 268 268
289 288 287 289 288 287 287 287 287 285 285 285 287 289 290 290 290 290 290 289 289 288 287 286 285 283 281 280 279 278 278 276 275 274 273 272 272 271 270 269 269 269 270 270
289 289 288 288 289 289 288 287 287 286 285 286 287 288 288 289 290 291 292 291 290 289 288 287 286 285 284 283 281 279 278 277 276 275 273 272 273 272 270 270 270 270 270 270
289 290 291 292 290 290 289 288 287 287 286 286 287 288 289 289 291 291 292 292 291 290 289 288 288 287 286 285 283 282 280 278 278 276 275 273 273 272 272 271 271 271 271 271
288 290 291 293 292 291 290 290 289 289 288 287 287 288 289 290 291 292 292 292 292 292 291 290 289 288 287 286 285 284 282 281 280 279 277 275 274 273 272 272 272 272 272 271
289 290 292 292 291 291 291 290 289 289 290 289 289 288 289 290 291 292 292 292 293 294 294 293 291 290 288 287 286 284 283 282 281 280 278 277 275 275 274 273 272 272 273 273
290 291 291 290 289 290 290 290 290 290 290 290 289 289 290 291 291 291 292 293 294 295 295 295 293 292 290 287 286 285 285 284 284 282 280 279 277 276 275 274 274 274 274 273
289 290 290 288 287 287 288 290 290 291 291 291 290 291 292 292 292 292 293 294 294 295 296 295 294 293 291 288 287 287 287 287 286 285 283 282 280 279 277 276 275 274 274 273
289 289 287 285 284 285 287 290 290 290 291 292 292 292 293 293 293 293 293 294 295 296 297 297 297 296 294 292 290 289 288 287 286 285 284 283 281 280 278 277 277 277 275 274
289 289 289 288 286 287 289 291 290 291 292 292 293 294 294 295 295 295 295 295 296 297 298 299 299 298 296 295 294 292 290 288 287 286 285 283 282 281 280 279 278 277 275 275
290 289 289 290 290 290 291 292 293 293 292 293 294 295 296 296 296 297 296 296 297 297 298 299 299 298 298 297 296 295 293 291 289 287 286 284 283 281 280 279 280 279 277 276
291 291 291 292 292 292 292 292 293 293 293 294 295 297 299 298 299 299 298 297 297 297 297 298 298 299 300 298 298 297 296 294 292 289 287 286 284 282 281 279 279 279 279 278
293 293 294 294 294 293 293 293 294 294 294 295 296 297 299 300 300 300 299 298 298 298 298 298 299 300 301 301 300 299 299 298 294 291 288 286 285 284 283 282 280 280 278 277
297 296 295 295 295 295 295 295 295 295 295 295 296 297 298 300 301 300 300 301 301 300 299 299 300 301 302 304 303 302 301 300 298 295 292 289 288 287 286 286 284 282 280 278
301 300 298 297 297 297 298 298 297 296 296 296 297 297 298 300 301 302 303 303 302 302 301 301 301 302 303 305 306 306 305 303 302 299 296 293 291 290 288 287 286 285 282 281
304 303 302 301 301 300 300 299 299 298 298 298 298 299 300 301 301 302 303 303 303 303 303 303 303 304 305 306 307 307 307 306 304 303 301 298 294 292 291 289 288 287 285 284
305 305 305 304 303 303 302 301 300 299 299 299 300 300 300 300 301 301 302 302 303 304 304 305 305 306 307 308 309 310 309 308 307 305 304 302 299 295 293 292 291 289 287 285
308 307 306 306 306 305 304 302 301 301 301 301 300 300 300 300 300 300 301 302 303 304 304 305 306 307 308 309 310 311 311 310 309 307 306 303 302 299 296 294 294 293 292 289
309 308 307 307 307 307 305 304 304 303 303 303 301 301 300 301 300 300 301 302 303 304 305 306 307 309 310 310 311 311 311 311 310 309 307 305 302 301 299 297 296 295 295 294
309 309 308 307 307 307 306 305 305 305 304 304 302 301 300 301 301 302 302 302 303 303 305 307 308 310 311 312 313 313 312 312 311 311 308 305 303 302 301 299 298 296 295 295
310 310 309 308 307 307 306 306 305 306 306 305 304 302 302 301 301 303 303 303 303 303 305 307 308 310 312 314 316 315 313 312 312 312 311 309 305 302 300 299 299 297 295 294
311 310 309 309 308 306 306 306 306 306 307 306 305 303 303 303 303 303 302 303 303 303 305 306 307 309 312 314 315 315 314 312 312 312 312 311 308 305 302 300 299 299 296 292
313 312 311 310 308 307 306 305 305 306 306 306 305 304 304 303 303 303 303 303 302 303 303 305 306 307 310 312 314 313 313 313 313 313 312 311 309 307 304 301 298 297 296 294
313 313 312 311 309 308 307 307 307 307 306 305 305 304 304 303 303 303 303 302 302 302 302 304 305 306 308 311 313 313 313 312 313 314 313 311 310 309 307 305 302 298 294 291
313 313 313 313 312 311 310 309 308 308 307 306 306 305 305 304 304 304 303 302 301 300 302 304 306 307 308 310 311 312 311 311 312 313 313 312 311 309 307 306 303 299 294 292
Height
5599 5598 5596 5594 5593 5591 5588 5586 5584 5582 5579 5578 5575 5572 5569 5566 5564 5561 5559 5557 5554 5552 5550 5548 5546 5544 5542 5541 5539 5538 5536 5535 5533 5532 5530 5529 5528 5528 5528 5529 5529 5530 5531 5532
5590 5588 5586 5584 5583 5581 5579 5577 5574 5571 5570 5568 5565 5562 5559 5556 5554 5551 5549 5546 5544 5541 5538 5536 5534 5532 5530 5529 5527 5526 5524 5522 5520 5518 5517 5516 5515 5514 5514 5514 5515 5516 5517 5517
5580 5578 5575 5575 5575 5571 5569 5567 5564 5561 5561 5558 5555 5552 5550 5547 5544 5541 5538 5535 5532 5530 5527 5525 5522 5520 5519 5517 5516 5514 5512 5510 5507 5505 5504 5503 5502 5501 5501 5501 5501 5502 5502 5503
5569 5568 5565 5567 5564 5561 5559 5557 5555 5552 5550 5548 5545 5543 5540 5537 5534 5531 5528 5525 5522 5519 5516 5513 5511 5509 5507 5505 5503 5501 5499 5497 5495 5493 5492 5490 5490 5489 5488 5488 5488 5488 5488 5488
5559 5556 5554 5556 5554 5551 5548 5547 5545 5542 5540 5538 5535 5533 5531 5528 5524 5521 5517 5514 5511 5508 5505 5502 5500 5497 5495 5493 5491 5489 5487 5485 5483 5481 5479 5479 5477 5476 5476 5475 5475 5474 5474 5474
5550 5546 5544 5547 5544 5541 5539 5537 5536 5532 5530 5528 5525 5523 5522 5518 5515 5511 5508 5504 5501 5498 5495 5492 5489 5486 5484 5482 5479 5477 5475 5473 5471 5469 5468 5467 5465 5464 5463 5462 5462 5461 5461 5460
5541 5537 5536 5537 5534 5531 5529 5528 5525 5522 5520 5517 5515 5513 5511 5508 5505 5501 5498 5495 5491 5488 5485 5482 5479 5476 5473 5471 5468 5465 5463 5461 5459 5457 5455 5454 5453 5452 5451 5450 5449 5448 5448 5447
5532 5529 5531 5527 5524 5522 5519 5516 5513 5511 5509 5507 5504 5502 5500 5497 5494 5491 5488 5485 5482 5479 5475 5472 5468 5465 5463 5460 5457 5454 5452 5450 5448 5446 5444 5442 5441 5439 5438 5437 5436 5435 5434 5434
5524 5524 5521 5517 5515 5512 5509 5507 5504 5502 5499 5497 5495 5493 5490 5488 5485 5482 5479 5476 5472 5469 5465 5462 5458 5454 5452 5449 5446 5443 5441 5439 5436 5434 5432 5430 5428 5427 5425 5424 5423 5422 5421 5420
5515 5514 5512 5508 5505 5503 5500 5497 5495 5493 5490 5488 5486 5483 5481 5478 5475 5472 5469 5466 5463 5459 5455 5452 5448 5444 5440 5437 5435 5432 5430 5427 5425 5422 5420 5417 5416 5414 5413 5411 5410 5409 5407 5406
5506 5505 5502 5500 5496 5494 5491 5489 5486 5484 5481 5479 5477 5474 5471 5469 5466 5463 5459 5456 5453 5449 5445 5442 5438 5434 5430 5427 5424 5421 5419 5416 5413 5411 5408 5406 5403 5401 5400 5399 5396 5395 5394 5393
5497 5495 5492 5490 5487 5485 5483 5481 5478 5476 5473 5470 5468 5465 5462 5459 5456 5453 5449 5446 5443 5439 5435 5432 5428 5424 5420 5417 5413 5410 5407 5405 5402 5399 5396 5394 5392 5390 5387 5386 5384 5382 5381 5380
5488 5486 5483 5481 5478 5476 5474 5472 5469 5467 5465 5462 5459 5456 5453 5450 5446 5443 5439 5436 5433 5429 5426 5422 5418 5415 5411 5407 5403 5400 5396 5393 5390 5387 5385 5382 5380 5378 5377 5375 5372 5371 5369 5367
5480 5477 5475 5473 5470 5468 5466 5463 5461 5458 5456 5453 5450 5447 5444 5440 5437 5433 5430 5426 5423 5420 5416 5413 5409 5405 5401 5397 5394 5390 5386 5383 5379 5377 5374 5371 5369 5367 5365 5363 5362 5360 5358 5356
5472 5469 5467 5464 5462 5459 5457 5455 5453 5450 5447 5444 5441 5438 5435 5432 5428 5425 5421 5417 5414 5410 5407 5404 5400 5396 5392 5388 5384 5381 5377 5373 5369 5366 5363 5361 5359 5356 5354 5352 5351 5349 5347 5346
5464 5462 5459 5457 5454 5452 5449 5447 5444 5441 5438 5435 5433 5430 5426 5423 5420 5416 5412 5408 5405 5402 5398 5395 5391 5387 5384 5380 5376 5371 5367 5363 5360 5356 5354 5351 5349 5346 5344 5342 5340 5338 5337 5335
5457 5455 5452 5450 5447 5444 5441 5438 5435 5432 5430 5427 5424 5421 5418 5414 5411 5407 5404 5400 5397 5393 5390 5387 5383 5379 5376 5372 5367 5363 5359 5355 5351 5347 5344 5342 5339 5337 5335 5333 5331 5329 5327 5326
5450 5447 5444 5442 5439 5436 5433 5430 5427 5425 5422 5419 5416 5413 5409 5406 5403 5399 5396 5392 5389 5386 5382 5379 5375 5372 5368 5364 5359 5355 5351 5347 5343 5339 5336 5333 5331 5329 5326 5324 5322 5321 5319 5317
5444 5441 5438 5434 5431 5428 5425 5422 5420 5417 5414 5411 5408 5405 5401 5398 5395 5392 5388 5385 5382 5378 5375 5372 5368 5364 5360 5356 5352 5348 5343 5339 5336 5332 5329 5326 5323 5321 5318 5316 5315 5313 5311 5309
5437 5434 5431 5427 5424 5421 5418 5415 5412 5409 5406 5403 5400 5397 5394 5391 5387 5384 5381 5378 5375 5371 5368 5364 5361 5357 5353 5349 5345 5341 5337 5333 5329 5326 5322 5319 5316 5314 5312 5309 5308 5306 5304 5302
5431 5427 5424 5421 5417 5414 5411 5408 5405 5402 5399 5396 5392 5389 5386 5383 5380 5377 5374 5371 5368 5364 5361 5357 5354 5350 5346 5342 5338 5334 5330 5326 5323 5319 5316 5313 5310 5308 5305 5303 5301 5300 5298 5296
5424 5421 5417 5414 5410 5407 5404 5401 5398 5395 5391 5388 5385 5382 5379 5376 5372 5369 5366 5364 5360 5357 5354 5350 5347 5343 5339 5335 5331 5328 5324 5320 5317 5313 5310 5307 5304 5302 5300 5298 5296 5294 5292 5290
5418 5414 5410 5407 5403 5400 5397 5393 5390 5387 5384 5380 5377 5374 5371 5368 5365 5362 5359 5356 5353 5350 5347 5343 5340 5337 5333 5329 5325 5322 5318 5315 5311 5308 5305 5302 5299 5296 5294 5292 5290 5288 5286 5285
5411 5407 5403 5399 5396 5392 5389 5386 5383 5379 5376 5372 5369 5366 5363 5360 5358 5355 5352 5349 5346 5343 5340 5337 5334 5330 5327 5323 5320 5316 5313 5309 5306 5303 5299 5296 5294 5291 5289 5286 5284 5283 5281 5279
5403 5399 5395 5392 5388 5385 5381 5378 5375 5372 5368 5365 5362 5359 5356 5353 5351 5348 5345 5342 5339 5336 5333 5330 5327 5324 5321 5317 5314 5310 5307 5304 5301 5297 5294 5291 5288 5285 5283 5281 5279 5277 5275 5274
5396 5392 5388 5384 5380 5377 5373 5370 5367 5364 5361 5357 5354 5351 5349 5346 5343 5340 5337 5334 5332 5329 5326 5323 5321 5318 5315 5311 5308 5305 5301 5298 5295 5292 5289 5286 5283 5280 5278 5275 5273 5272 5270 5269
5389 5385 5381 5377 5373 5369 5366 5362 5359 5356 5353 5350 5347 5344 5341 5338 5336 5333 5330 5327 5325 5322 5319 5317 5314 5311 5308 5305 5302 5299 5296 5293 5290 5286 5283 5281 5278 5275 5273 5271 5269 5267 5265 5264